When you browse on this site, cookies collect data to enhance your experience and personalize the content and advertising you see.
Visit our Privacy Policy to learn more. By continuing to use the site, you agree to this use of cookies and data.
EN

Hourly Weather Winchester

Today, 20 September, Sunday

Time Temperature Precipitation Wind Pressure Humidity
00:00 +15°C° 0 mm 6 mps 756 mmHg 74%
01:00 +14°C° 0 mm 6 mps 756 mmHg 78%
02:00 +14°C° 0 mm 6 mps 756 mmHg 81%
03:00 +14°C° 0 mm 6 mps 756 mmHg 85%
04:00 +14°C° 0 mm 6 mps 756 mmHg 87%
05:00 +14°C° 0 mm 6 mps 756 mmHg 88%
06:00 +14°C° 0 mm 6 mps 757 mmHg 90%
07:00 +15°C° 0 mm 6 mps 757 mmHg 84%
08:00 +16°C° 0 mm 6 mps 757 mmHg 79%
09:00 +19°C° 0 mm 6 mps 757 mmHg 73%
10:00 +20°C° 0 mm 6 mps 757 mmHg 68%
11:00 +21°C° 0 mm 6 mps 757 mmHg 64%
12:00 +23°C° 0 mm 5 mps 757 mmHg 59%
13:00 +23°C° 0 mm 5 mps 757 mmHg 58%
14:00 +23°C° 0 mm 5 mps 757 mmHg 56%
15:00 +25°C° 0 mm 5 mps 756 mmHg 55%
16:00 +22°C° 0 mm 4 mps 757 mmHg 59%
17:00 +21°C° 0 mm 4 mps 757 mmHg 64%
18:00 +20°C° 0 mm 4 mps 757 mmHg 68%
19:00 +18°C° 0 mm 4 mps 757 mmHg 69%
20:00 +17°C° 0 mm 4 mps 757 mmHg 71%
21:00 +15°C° 0 mm 4 mps 758 mmHg 72%
22:00 +15°C° 0 mm 4 mps 758 mmHg 74%
23:00 +14°C° 0 mm 3 mps 758 mmHg 76%

Tomorrow, 21 September, Monday

Time Temperature Precipitation Wind Pressure Humidity
00:00 +13°C° 0 mm 3 mps 757 mmHg 78%
01:00 +13°C° 0 mm 3 mps 757 mmHg 82%
02:00 +12°C° 0 mm 3 mps 757 mmHg 86%
03:00 +12°C° 0 mm 3 mps 757 mmHg 90%
04:00 +11°C° 0 mm 3 mps 757 mmHg 91%
05:00 +11°C° 0 mm 3 mps 757 mmHg 92%
06:00 +12°C° 0 mm 2 mps 757 mmHg 94%
07:00 +13°C° 0 mm 3 mps 757 mmHg 87%
08:00 +14°C° 0 mm 3 mps 757 mmHg 80%
09:00 +17°C° 0 mm 3 mps 757 mmHg 73%
10:00 +19°C° 0 mm 2 mps 757 mmHg 64%
11:00 +21°C° 0 mm 2 mps 757 mmHg 56%
12:00 +23°C° 0 mm 1 mps 757 mmHg 47%
13:00 +24°C° 0 mm 1 mps 756 mmHg 46%
14:00 +24°C° 0 mm 1 mps 756 mmHg 46%
15:00 +25°C° 0 mm 1 mps 756 mmHg 45%
16:00 +23°C° 0 mm 1 mps 756 mmHg 52%
17:00 +21°C° 0 mm 1 mps 755 mmHg 58%
18:00 +17°C° 0 mm 0 mps 755 mmHg 65%
19:00 +17°C° 0 mm 0 mps 755 mmHg 68%
20:00 +16°C° 0 mm 0 mps 755 mmHg 71%
21:00 +15°C° 0 mm 0 mps 755 mmHg 74%
22:00 +15°C° 0 mm 0 mps 755 mmHg 74%
23:00 +15°C° 0 mm 0 mps 755 mmHg 75%

Day after tomorrow, 22 September, Tuesday

Time Temperature Precipitation Wind Pressure Humidity
00:00 +14°C° 0 mm 0 mps 754 mmHg 75%
01:00 +14°C° 0 mm 0 mps 754 mmHg 76%
02:00 +14°C° 0 mm 0 mps 753 mmHg 77%
03:00 +14°C° 0 mm 0 mps 753 mmHg 78%
04:00 +14°C° 0 mm 1 mps 752 mmHg 79%
05:00 +14°C° 0 mm 1 mps 752 mmHg 81%
06:00 +14°C° 0 mm 1 mps 752 mmHg 82%
07:00 +16°C° 0 mm 1 mps 752 mmHg 76%
08:00 +18°C° 0 mm 2 mps 751 mmHg 69%
09:00 +20°C° 0 mm 2 mps 751 mmHg 63%
10:00 +21°C° 0 mm 3 mps 750 mmHg 60%
11:00 +22°C° 0 mm 3 mps 750 mmHg 58%
12:00 +23°C° 0 mm 4 mps 750 mmHg 55%
13:00 +22°C° 0 mm 4 mps 749 mmHg 59%
14:00 +22°C° 0 mm 5 mps 749 mmHg 64%
15:00 +22°C° 0 mm 5 mps 748 mmHg 68%
16:00 +20°C° 0 mm 4 mps 748 mmHg 75%
17:00 +19°C° 0 mm 4 mps 748 mmHg 81%
18:00 +17°C° 0 mm 3 mps 747 mmHg 87%
19:00 +17°C° 0 mm 3 mps 747 mmHg 88%
20:00 +17°C° 0 mm 3 mps 747 mmHg 89%
21:00 +17°C° 0 mm 3 mps 747 mmHg 89%
22:00 +16°C° 0.1 mm 3 mps 747 mmHg 91%
23:00 +16°C° 0.1 mm 3 mps 747 mmHg 93%

23 September, Wednesday

Time Temperature Precipitation Wind Pressure Humidity
00:00 +14°C° 0.1 mm 3 mps 746 mmHg 94%
01:00 +14°C° 0.1 mm 3 mps 746 mmHg 94%
02:00 +14°C° 0.1 mm 3 mps 745 mmHg 94%
03:00 +14°C° 0.1 mm 2 mps 745 mmHg 95%
04:00 +15°C° 0.1 mm 2 mps 744 mmHg 94%
05:00 +15°C° 0.1 mm 2 mps 744 mmHg 94%
06:00 +15°C° 0.1 mm 2 mps 744 mmHg 94%
07:00 +14°C° 0.3 mm 3 mps 743 mmHg 92%
08:00 +14°C° 0.3 mm 3 mps 743 mmHg 91%
09:00 +14°C° 0.3 mm 3 mps 743 mmHg 90%
10:00 +14°C° 0.6 mm 4 mps 742 mmHg 87%
11:00 +14°C° 0.6 mm 4 mps 742 mmHg 85%
12:00 +14°C° 0.6 mm 5 mps 742 mmHg 82%
13:00 +15°C° 0.4 mm 6 mps 742 mmHg 79%
14:00 +16°C° 0.4 mm 7 mps 742 mmHg 77%
15:00 +16°C° 0.4 mm 8 mps 741 mmHg 74%
16:00 +13°C° 0.2 mm 8 mps 741 mmHg 77%
17:00 +11°C° 0.2 mm 7 mps 742 mmHg 80%
18:00 +10°C° 0.2 mm 7 mps 742 mmHg 83%
19:00 +9°C° 0.1 mm 7 mps 742 mmHg 83%
20:00 +8°C° 0.1 mm 6 mps 743 mmHg 83%
21:00 +7°C° 0.1 mm 6 mps 744 mmHg 84%
22:00 +7°C° 0 mm 5 mps 744 mmHg 84%
23:00 +7°C° 0 mm 5 mps 744 mmHg 84%

24 September, Thursday

Time Temperature Precipitation Wind Pressure Humidity
00:00 +7°C° 0 mm 4 mps 744 mmHg 84%
01:00 +7°C° 0 mm 4 mps 744 mmHg 84%
02:00 +7°C° 0 mm 4 mps 743 mmHg 85%
03:00 +7°C° 0 mm 4 mps 742 mmHg 85%
04:00 +8°C° 0.8 mm 5 mps 741 mmHg 85%
05:00 +9°C° 0.8 mm 7 mps 741 mmHg 84%
06:00 +10°C° 0.8 mm 8 mps 740 mmHg 84%
07:00 +10°C° 0.7 mm 7 mps 740 mmHg 80%
08:00 +10°C° 0.7 mm 7 mps 740 mmHg 76%
09:00 +10°C° 0.7 mm 6 mps 740 mmHg 72%
10:00 +11°C° 0.1 mm 6 mps 740 mmHg 67%
11:00 +12°C° 0.1 mm 7 mps 740 mmHg 62%
12:00 +12°C° 0.1 mm 7 mps 740 mmHg 57%
13:00 +12°C° 0.2 mm 7 mps 739 mmHg 58%
14:00 +12°C° 0.2 mm 7 mps 739 mmHg 58%
15:00 +13°C° 0.2 mm 6 mps 738 mmHg 59%
16:00 +12°C° 0.2 mm 5 mps 738 mmHg 66%
17:00 +11°C° 0.2 mm 3 mps 738 mmHg 72%
18:00 +9°C° 0.2 mm 2 mps 738 mmHg 78%
19:00 +9°C° 0.3 mm 2 mps 738 mmHg 80%
20:00 +9°C° 0.3 mm 2 mps 739 mmHg 81%
21:00 +8°C° 0.3 mm 3 mps 739 mmHg 82%
22:00 +7°C° 0.1 mm 4 mps 740 mmHg 83%
23:00 +6°C° 0.1 mm 5 mps 741 mmHg 84%

25 September, Friday

Time Temperature Precipitation Wind Pressure Humidity
00:00 +5°C° 0.1 mm 6 mps 742 mmHg 84%
01:00 +5°C° 0 mm 7 mps 743 mmHg 84%
02:00 +4°C° 0 mm 7 mps 743 mmHg 84%
03:00 +4°C° 0 mm 7 mps 744 mmHg 83%
04:00 +4°C° 0 mm 7 mps 745 mmHg 82%
05:00 +4°C° 0 mm 7 mps 746 mmHg 80%
06:00 +4°C° 0 mm 7 mps 746 mmHg 79%
07:00 +5°C° 0 mm 7 mps 747 mmHg 71%
08:00 +7°C° 0 mm 8 mps 748 mmHg 64%
09:00 +9°C° 0 mm 8 mps 749 mmHg 57%
10:00 +10°C° 0 mm 7 mps 749 mmHg 54%
11:00 +11°C° 0 mm 7 mps 750 mmHg 51%
12:00 +12°C° 0 mm 7 mps 750 mmHg 49%
13:00 +12°C° 0 mm 7 mps 750 mmHg 50%
14:00 +13°C° 0 mm 6 mps 750 mmHg 51%
15:00 +13°C° 0 mm 6 mps 751 mmHg 52%
16:00 +12°C° 0 mm 5 mps 751 mmHg 60%
17:00 +9°C° 0 mm 5 mps 751 mmHg 67%
18:00 +8°C° 0 mm 4 mps 751 mmHg 75%
19:00 +7°C° 0 mm 4 mps 751 mmHg 79%
20:00 +8°C° 0 mm 3 mps 751 mmHg 83%
21:00 +7°C° 0 mm 3 mps 752 mmHg 87%
22:00 +5°C° 0 mm 3 mps 752 mmHg 88%
23:00 +6°C° 0 mm 2 mps 751 mmHg 88%
Show more